San Antonio, TX

10:33 AM CDT on March 24, 2017 (GMT -0500)
San Antonio International

Weather History for KSAT - November, 2014

Change the Weather History Date:

Saturday, November 1, 2014

  Actual Average Record
Temperature  
Mean Temperature 60 °F 66 °F  
Max Temperature 70 °F 77 °F 88 °F (1945)
Min Temperature 49 °F 55 °F 31 °F (1993)
Degree Days  
Heating Degree Days 5 3  
Month to date heating degree days 5 3  
Since 1 July heating degree days 5 36  
Cooling Degree Days 0 4  
Month to date cooling degree days 0 4  
Year to date cooling degree days 3471 3059  
Growing Degree Days 9 (Base 50)    
Moisture  
Dew Point 42 °F    
Average Humidity 55    
Maximum Humidity 75    
Minimum Humidity 35    
Precipitation  
Precipitation 0.00 in 0.10 in 4.87 in (1977)
Month to date precipitation 0.00 0.10  
Year to date precipitation 19.75 28.18  
Snow  
Snow 0.00 in - - ()
Month to date snowfall 0.0  
Since 1 July snowfall 0.0  
Since 1 September snowfall 0.0  
Snow Depth 0.00 in    
Sea Level Pressure  
Sea Level Pressure 30.29 in    
Wind  
Wind Speed 8 mph (East)    
Max Wind Speed 15 mph    
Max Gust Speed 19 mph    
Visibility 10 miles    
Events      
T = Trace of Precipitation, MM = Missing Value Source: NWS Daily Summary

Daily Weather History Graph

Daily Weather History Graph

Search for Another Location

Airport or City:

Trip Planner

Search our weather history database for the weather conditions in past years. The results will help you decide how hot, cold, wet, or windy it might be!

Date:

Astronomy

Nov. 01, 2014 Rise Set
Actual Time 7:47 AM CDT 6:47 PM CDT
Civil Twilight 7:22 AM CDT 7:11 PM CDT
Nautical Twilight 6:54 AM CDT 7:40 PM CDT
Astronomical Twilight 6:26 AM CDT 8:07 PM CDT
Moon 3:18 PM CDT (11/1) 2:11 AM CDT (11/1)
Length of Visible Light 11h 49m
Length of Day
11h 00m
Waxing Gibbous, 68% of the Moon is Illuminated
Nov 1
Waxing Gibbous
Nov 6
Full
Nov 14
Last Quarter
Nov 22
New
Nov 29
First Quarter

Hourly Weather History & Observations

Time (CDT) Temp. Dew Point Humidity Pressure Visibility Wind Dir Wind Speed Gust Speed Precip Events Conditions
12:51 AM 57.0 °F 42.1 °F 57% 30.27 in 10.0 mi NE 6.9 mph - N/A   Clear
1:51 AM 55.9 °F 42.1 °F 60% 30.27 in 10.0 mi ENE 5.8 mph - N/A   Clear
2:51 AM 54.0 °F 42.1 °F 64% 30.29 in 10.0 mi North 4.6 mph - N/A   Clear
3:51 AM 53.1 °F 41.0 °F 64% 30.29 in 10.0 mi NE 8.1 mph - N/A   Clear
4:51 AM 51.1 °F 39.9 °F 66% 30.29 in 10.0 mi NE 6.9 mph - N/A   Clear
5:51 AM 50.0 °F 39.0 °F 66% 30.30 in 10.0 mi NE 5.8 mph - N/A   Clear
6:51 AM 50.0 °F 37.9 °F 63% 30.32 in 10.0 mi NE 6.9 mph - N/A   Clear
7:51 AM 48.9 °F 37.9 °F 66% 30.33 in 10.0 mi NNE 5.8 mph - N/A   Partly Cloudy
8:51 AM 52.0 °F 39.0 °F 61% 30.35 in 10.0 mi ENE 8.1 mph - N/A   Partly Cloudy
9:51 AM 55.9 °F 39.9 °F 55% 30.36 in 10.0 mi East 8.1 mph - N/A   Partly Cloudy
10:51 AM 59.0 °F 41.0 °F 51% 30.36 in 10.0 mi East 10.4 mph - N/A   Clear
11:51 AM 62.1 °F 42.1 °F 48% 30.35 in 10.0 mi ESE 6.9 mph - N/A   Clear
12:51 PM 63.0 °F 42.1 °F 46% 30.32 in 10.0 mi ESE 8.1 mph - N/A   Clear
1:51 PM 66.0 °F 43.0 °F 43% 30.30 in 10.0 mi East 6.9 mph - N/A   Partly Cloudy
2:51 PM 66.9 °F 41.0 °F 39% 30.25 in 10.0 mi ESE 6.9 mph - N/A   Partly Cloudy
3:51 PM 69.1 °F 41.0 °F 36% 30.24 in 10.0 mi ESE 9.2 mph - N/A   Partly Cloudy
4:51 PM 69.1 °F 41.0 °F 36% 30.23 in 10.0 mi East 8.1 mph - N/A   Scattered Clouds
5:51 PM 68.0 °F 39.0 °F 35% 30.23 in 10.0 mi SE 10.4 mph - N/A   Mostly Cloudy
6:51 PM 64.0 °F 41.0 °F 43% 30.23 in 10.0 mi SE 8.1 mph - N/A   Mostly Cloudy
7:51 PM 62.1 °F 41.0 °F 46% 30.25 in 10.0 mi SSE 4.6 mph - N/A   Mostly Cloudy
8:51 PM 60.1 °F 43.0 °F 53% 30.25 in 10.0 mi East 3.5 mph - N/A   Scattered Clouds
9:51 PM 60.1 °F 48.0 °F 64% 30.26 in 10.0 mi SE 12.7 mph - N/A   Scattered Clouds
10:51 PM 60.1 °F 52.0 °F 75% 30.27 in 10.0 mi SSE 11.5 mph - N/A   Scattered Clouds
11:51 PM 59.0 °F 52.0 °F 78% 30.26 in 10.0 mi SE 10.4 mph - N/A   Scattered Clouds